Volver al catálogo

SL-16 DEB

ActivoLEO
NORAD 22608·DEBRIS·🇷🇺 Russia

Lanzado Mar 26, 1993 desde Baikonur Cosmodrome

Loading…

Próximos Pases (próximas 24 horas)

TLE

ActualizadoSource: Space-Track

Época: Sep 14, 2026, 06:19 UTC

1 22608U 93016S   26257.26377840 -.00000014  00000-0  24680-4 0  9996
2 22608  71.0070 347.3954 0128618  64.0244 328.3817 13.84738428691271

Sigue SL-16 DEB en tiempo real con AllMySat

Download on the App Store